Dewpoint
25 23 22 18 18 18 16 14 14 9 7 8 7 7 9 6 8 11 16 17 19 20 20 23 23 23 24 23 23 23 24 27 28 29 30 30 34 37 37 36 39 39 38 36 34 35 34 36 39 39 38 38 39 37 35 33 31 29 28 28 25 23 22 20 19 19 18 17 19 15 14 14 20 18 15 15 16 15 16 18 15 15 13 13 13
19 15 13 11 11 14 11 10 13 6 7 6 6 8 6 8 8 9 13 16 17 18 20 21 22 22 22 23 23 24 24 25 26 27 29 31 31 34 36 36 38 39 39 40 41 40 37 38 38 40 42 40 38 37 36 35 33 31 29 27 26 23 21 20 20 18 15 14 14 12 13 14 18 18 14 13 14 14 15 16 15 14 13 13 13
12 11 13 11 13 12 9 7 0 1 0 3 5 7 10 8 9 11 14 16 19 20 22 19 18 19 20 21 22 24 24 24 24 26 26 29 31 33 35 35 36 36 37 38 39 39 40 41 41 41 39 39 40 40 38 35 33 31 29 27 26 24 22 22 19 16 14 15 14 13 10 11 14 16 14 14 14 13 14 14 16 14 13 13 12
7 4 5 6 6 5 5 4 1 4 4 1 2 6 9 14 10 10 13 14 17 19 24 20 19 19 19 21 23 22 22 26 25 24 24 25 29 33 34 34 36 37 38 38 40 39 38 40 41 40 39 40 40 39 37 35 33 32 30 28 26 24 22 21 19 16 14 14 12 11 10 10 9 11 12 12 12 12 13 13 16 14 12 12 13
9 8 7 6 2 1 1 4 2 1 2 3 6 7 8 10 12 12 13 14 16 19 18 19 20 19 19 19 22 24 25 25 24 24 24 25 27 33 34 36 36 37 36 37 36 36 38 38 38 39 40 40 41 40 39 37 35 33 32 32 27 25 23 20 21 17 14 14 13 10 9 8 9 10 11 11 11 10 11 12 17 13 12 11 13
8 5 -1 -4 -3 1 2 1 2 1 1 2 4 8 9 10 11 12 14 15 16 18 19 20 19 18 17 17 17 18 18 19 20 21 24 24 24 25 28 29 35 36 37 37 36 38 37 37 37 37 38 38 38 39 39 39 38 36 32 32 32 26 24 20 19 20 15 14 13 11 11 13 14 10 10 10 11 10 10 10 13 12 11 13 12
2 1 1 0 -2 -3 -2 -3 -2 -3 -2 4 6 7 8 10 11 13 16 20 21 21 21 21 19 18 17 17 18 17 18 19 17 19 22 23 25 25 27 28 29 29 32 36 37 37 37 37 37 37 37 36 37 35 36 36 36 37 35 32 32 30 25 22 19 18 17 14 14 10 13 15 11 10 12 8 9 9 8 9 8 10 8 10 11
1 -1 -4 -6 -5 -6 -6 -4 -5 -3 1 7 8 10 10 10 13 16 19 21 21 21 20 21 21 19 19 18 19 19 18 17 16 17 19 22 23 25 27 28 29 29 29 29 33 36 36 37 36 36 35 35 36 36 36 36 35 34 35 33 33 31 29 26 21 18 16 15 13 10 11 12 9 10 10 11 12 10 7 7 7 7 7 6 9
2 -2 -5 -5 -5 -4 -2 -1 2 5 9 10 10 10 12 13 15 17 19 20 20 19 19 18 19 19 19 19 18 19 18 19 19 20 20 22 22 24 25 27 28 29 30 30 30 30 32 38 36 36 36 36 36 36 35 35 34 34 33 32 31 32 30 30 26 19 17 16 14 11 9 10 7 5 9 10 10 10 6 5 5 5 5 4 5
4 -2 -4 -3 -4 -4 -0 4 6 8 11 14 13 13 13 14 16 18 20 21 20 17 17 18 19 20 19 19 19 18 18 18 18 18 18 19 19 21 22 26 29 30 31 31 31 31 30 30 33 36 36 36 36 35 34 34 34 34 34 33 33 30 30 29 28 23 17 17 15 12 10 9 7 6 2 6 8 9 7 5 5 4 4 4 3
2 -2 -2 -2 -3 -2 2 6 8 9 11 13 14 14 16 16 16 18 21 22 21 17 17 19 20 20 20 21 21 21 20 19 18 18 19 19 19 20 22 24 27 28 30 30 32 32 31 31 31 32 33 33 35 34 34 34 34 34 34 33 33 33 33 31 30 26 18 17 16 14 11 9 8 8 6 2 6 6 6 5 4 4 4 4 3
2 1 1 1 -0 -0 3 6 9 10 11 12 13 16 20 20 21 22 24 27 23 18 18 20 21 21 21 21 22 23 23 22 21 20 19 19 19 20 22 23 24 28 29 31 33 32 32 31 31 32 32 32 31 31 34 34 34 34 33 33 33 33 33 33 33 31 28 18 17 16 14 12 10 8 8 6 5 7 8 6 5 5 5 4 3
3 1 0 0 0 2 5 6 8 12 13 12 15 21 21 22 23 23 23 24 22 17 18 21 22 22 23 21 21 23 24 24 23 22 22 22 21 20 20 22 25 27 28 29 31 31 31 31 32 33 32 33 33 33 32 29 33 34 34 33 33 33 33 33 33 32 33 32 20 23 18 16 14 12 10 9 7 9 11 7 7 6 5 3 2
-0 -0 -1 -2 -0 1 5 8 11 12 12 15 21 22 23 24 24 24 25 23 17 20 20 20 22 23 23 22 22 22 23 24 24 24 22 22 23 23 23 24 24 25 25 26 27 31 32 33 33 33 33 32 32 32 33 32 32 28 31 33 33 33 33 33 33 33 33 33 32 23 19 17 17 15 14 9 9 9 13 14 9 8 5 3 1
-2 -2 -2 -1 0 -0 5 10 12 12 12 21 22 23 23 22 22 20 17 15 17 20 22 22 22 22 22 22 22 22 22 23 25 28 26 25 25 25 25 24 24 23 24 24 26 25 29 33 33 33 33 32 32 32 32 33 32 32 32 28 31 33 33 33 33 32 32 32 32 31 23 20 17 16 14 11 10 11 11 14 12 11 7 5 4
-3 -3 -1 -0 0 1 5 8 11 12 16 21 22 23 21 20 18 17 17 17 20 21 20 20 20 20 19 19 20 21 22 23 25 27 27 27 26 25 24 24 24 23 23 24 24 25 25 28 32 33 32 32 32 32 32 32 32 32 32 32 32 30 29 31 32 32 31 32 32 33 30 21 19 17 15 15 13 13 15 16 16 14 9 9 8
-4 -2 -2 -1 -0 1 6 8 11 15 19 21 21 20 19 18 18 19 19 19 21 20 19 19 19 19 20 20 19 19 20 23 24 26 27 28 29 29 27 25 24 24 23 24 24 23 23 23 24 30 33 32 32 32 32 31 31 31 32 32 32 32 32 30 29 29 30 31 32 31 31 27 21 18 17 17 16 16 15 15 15 13 15 13 10
-4 -2 -1 -0 1 3 3 10 15 18 18 18 18 16 17 20 19 18 19 20 18 19 17 16 16 17 18 19 19 18 20 23 25 26 28 28 28 27 26 25 24 24 23 24 23 23 24 25 25 25 27 31 32 32 32 31 31 31 31 31 32 32 32 32 32 30 28 28 29 30 30 29 26 19 17 18 17 17 17 16 16 15 16 16 15
-2 -1 0 3 3 4 4 11 15 16 17 17 16 14 18 19 19 19 20 18 18 17 13 13 15 18 20 20 20 21 24 24 24 24 24 25 26 27 26 24 23 22 22 22 22 22 22 23 23 23 26 26 29 31 31 31 31 31 31 31 31 31 31 31 32 31 30 29 27 26 27 28 28 26 20 17 18 17 16 17 17 17 19 17 20
-1 1 3 5 5 5 6 11 14 15 16 14 13 15 17 19 19 19 18 19 15 10 10 11 12 14 17 17 17 18 20 20 20 18 18 22 24 26 26 26 24 22 22 22 21 22 22 22 23 23 24 26 26 27 30 29 29 29 29 29 29 30 31 30 30 31 30 29 27 26 26 25 26 27 25 20 18 18 17 17 17 17 17 17 17
0 2 3 4 5 5 8 12 15 15 13 12 12 14 17 19 19 18 18 15 12 10 10 12 12 13 13 12 11 10 9 12 14 17 19 22 25 26 26 26 23 23 23 23 23 22 22 22 22 23 23 23 23 24 26 28 28 28 28 28 28 28 29 29 29 28 28 28 27 26 26 26 26 25 26 24 19 18 18 17 18 18 19 17 17
-1 2 3 5 5 5 9 14 15 13 11 10 12 14 17 19 18 18 17 13 11 11 10 10 9 11 11 10 8 7 7 7 7 11 15 18 22 24 25 27 25 24 24 25 25 26 26 26 24 22 23 23 23 23 24 25 27 27 27 27 27 27 27 28 28 27 26 27 26 26 26 26 25 25 24 23 20 20 17 16 16 17 17 17 16
0 1 3 4 4 6 10 13 13 11 10 11 12 15 18 18 17 17 14 11 10 10 10 10 9 10 10 10 9 8 9 8 7 8 10 14 18 21 24 25 24 25 25 25 24 25 26 27 28 28 27 24 23 23 23 24 25 26 26 26 26 26 27 27 27 28 28 27 26 26 26 26 25 24 23 22 21 20 19 18 16 19 18 16 15
-0 2 3 4 6 8 10 13 11 9 9 10 12 15 18 18 17 15 13 10 9 9 9 8 9 10 11 9 7 7 9 11 10 11 12 13 16 21 25 27 27 24 22 21 24 26 26 26 26 27 27 28 26 25 24 24 25 26 26 26 26 26 26 27 27 28 28 28 27 26 26 25 25 24 23 22 22 21 19 17 17 16 16 16 14
0 1 2 5 7 10 10 10 10 10 10 12 14 16 17 17 18 16 12 11 10 9 8 8 8 8 7 6 5 6 8 10 11 11 13 14 16 20 21 20 19 18 18 18 19 19 20 24 25 26 27 27 27 26 25 25 25 26 27 27 26 26 26 27 28 28 28 28 28 27 26 26 25 25 24 22 22 21 20 18 17 16 15 15 14
1 2 4 7 9 9 8 9 10 11 13 14 16 17 15 15 15 13 11 10 9 8 8 9 8 6 4 3 3 3 4 7 10 12 15 17 17 16 16 17 17 16 15 15 15 15 16 18 23 26 27 28 28 28 28 27 26 26 27 28 28 27 27 27 27 28 28 28 28 27 26 25 25 25 24 24 24 22 21 20 18 17 16 15 14
2 5 6 7 7 8 8 9 11 14 15 16 16 15 15 15 13 11 9 9 8 8 9 6 4 -0 -1 -1 -1 -1 1 5 9 12 15 15 14 13 13 14 14 13 13 13 13 13 14 17 21 25 26 27 28 28 28 27 27 27 28 28 27 28 28 28 28 28 28 28 28 28 27 26 25 25 25 25 24 23 22 21 20 20 19 18 17
5 5 6 7 7 7 8 10 12 13 15 16 15 15 13 12 10 10 8 7 8 7 4 0 -3 -4 -4 -2 -2 -0 2 7 10 11 12 11 12 12 13 14 15 14 15 15 15 16 17 20 23 25 26 27 27 27 28 28 28 28 28 27 28 28 28 28 28 28 28 28 28 28 27 27 27 26 25 25 25 23 22 21 21 20 20 19 17
5 5 5 5 4 5 7 8 8 13 14 14 13 11 10 9 8 7 7 7 5 3 -2 -5 -6 -6 -4 -2 -0 4 9 10 10 9 9 9 10 11 13 14 16 17 19 20 20 21 25 26 26 27 26 26 26 26 26 26 26 26 26 27 28 28 29 29 28 28 28 28 28 28 28 27 27 27 27 26 26 25 22 21 21 21 20 19 18
4 3 3 4 4 5 5 5 11 13 12 10 9 7 7 6 6 7 7 6 3 -3 -5 -6 -6 -4 1 4 7 7 4 3 4 5 6 9 11 13 15 16 16 17 18 20 23 24 25 25 25 26 27 27 26 26 27 29 30 27 26 27 28 27 28 29 29 28 28 28 28 28 27 28 28 28 28 28 27 27 25 23 21 21 20 19 18
3 4 4 3 4 4 3 9 12 11 8 5 3 4 5 5 4 2 2 1 -3 -5 -5 -4 -2 2 5 1 -0 -1 1 2 4 6 8 11 13 12 12 12 14 16 19 22 24 25 24 23 23 23 25 27 27 27 29 29 30 29 28 27 28 28 28 29 29 28 28 27 27 27 27 27 27 28 28 28 28 27 26 25 24 23 22 20 18
2 2 4 4 4 3 10 10 9 7 5 4 5 3 1 2 -1 -2 -4 -3 -3 -4 -7 -7 -1 3 1 -3 -4 -3 1 4 6 8 10 12 12 11 11 11 13 15 17 20 21 22 22 23 23 25 26 27 27 29 30 30 30 29 28 28 28 28 28 28 28 28 28 27 27 27 27 27 27 27 27 27 27 27 27 26 25 24 24 24 23
4 4 6 5 3 9 10 8 7 5 3 3 3 -1 -2 -3 -6 -6 -4 -5 -6 -6 -7 -8 -7 -4 -3 -4 -3 1 4 5 7 7 9 10 10 10 10 11 13 16 17 19 21 22 24 25 25 26 27 28 27 29 30 31 31 31 30 30 29 29 29 29 29 28 28 27 27 26 26 26 26 27 27 26 26 26 27 26 26 25 24 24 24
4 5 5 4 6 9 9 8 5 3 1 2 0 -2 -5 -7 -7 -4 -5 -8 -8 -6 -6 -7 -7 -6 -4 -2 1 3 4 4 3 4 5 7 9 9 10 12 14 17 19 20 21 23 24 25 26 27 27 28 27 29 30 30 30 31 31 31 29 30 30 30 29 29 28 27 27 26 25 25 25 25 26 26 25 25 25 25 25 24 23 24 24
4 5 5 5 9 9 7 4 2 1 -1 -1 1 -3 -7 -7 -5 -8 -11 -9 -7 -7 -7 -7 -6 -4 -1 1 2 2 2 2 3 4 5 6 8 9 10 12 14 16 20 21 22 24 25 26 27 27 27 27 27 29 30 31 31 31 31 30 29 28 29 30 30 29 28 28 27 26 25 25 24 24 25 25 24 24 24 24 24 23 23 23 23
3 4 5 6 9 8 6 3 1 -1 -2 -2 -2 -5 -7 -5 -5 -9 -8 -7 -8 -8 -8 -7 -5 -4 -2 -1 0 1 1 2 3 4 6 7 8 9 9 11 14 16 20 24 25 26 27 28 28 27 26 26 27 29 30 30 31 31 30 29 29 29 29 30 30 30 29 28 28 27 26 25 24 23 25 27 26 24 23 23 23 23 22 22 23
3 5 5 5 5 4 1 -0 0 -2 -4 -3 -4 -7 -6 -5 -7 -7 -7 -8 -9 -8 -8 -7 -5 -5 -3 -1 1 2 3 4 4 5 6 7 8 9 9 12 14 16 19 23 24 25 27 26 24 25 25 25 25 28 29 29 30 30 29 29 29 29 29 29 29 29 29 28 28 27 26 24 23 23 25 26 27 26 23 22 22 22 21 21 21
3 5 6 5 3 1 1 0 -1 -4 -7 -5 -5 -6 -7 -7 -7 -7 -10 -9 -9 -9 -8 -6 -6 -5 -3 -0 1 2 4 4 5 5 6 6 8 9 10 12 14 16 18 22 25 27 26 25 24 24 25 25 25 27 29 29 30 30 30 29 28 28 28 28 28 28 28 28 27 28 27 24 23 23 25 27 27 25 22 22 21 20 20 20 20
4 5 4 3 1 1 0 -0 -3 -5 -6 -6 -5 -5 -7 -7 -8 -9 -9 -9 -9 -9 -7 -6 -5 -4 -2 1 2 3 3 3 4 6 7 7 8 9 11 13 14 16 19 22 26 27 27 27 27 27 28 28 27 28 29 30 31 30 29 29 28 28 28 27 27 26 27 26 26 27 26 24 23 23 26 26 27 26 22 21 21 20 19 18 19
5 4 4 2 1 -1 -0 -3 -5 -5 -6 -7 -7 -7 -6 -8 -9 -8 -8 -8 -8 -7 -7 -5 -4 -3 -2 -1 2 2 3 4 5 6 6 7 9 10 11 13 15 18 20 24 26 26 27 27 28 27 27 28 28 28 29 30 31 31 31 30 29 28 27 25 25 24 24 24 24 24 25 26 26 25 25 26 26 27 22 21 21 19 18 18 20
5 4 7 2 1 1 -2 -3 -3 -4 -6 -6 -7 -8 -8 -8 -7 -7 -7 -6 -6 -6 -5 -4 -3 -1 -1 -1 -1 2 3 4 5 6 7 8 9 10 12 15 17 19 22 26 26 27 27 26 26 27 28 29 30 29 29 30 30 30 30 30 28 27 26 24 23 23 22 21 21 22 23 25 26 25 25 26 26 26 25 21 21 19 18 19 21
5 5 4 2 -0 -2 -2 -2 -4 -5 -6 -6 -7 -7 -6 -7 -6 -6 -6 -5 -4 -4 -3 -3 -3 -3 -2 -1 1 2 3 4 6 6 6 7 9 12 16 19 20 22 24 26 26 26 26 26 27 28 28 27 27 27 26 27 27 27 27 26 25 25 25 24 22 21 21 20 20 21 22 24 25 25 25 26 26 26 26 21 20 22 22 23 20
3 3 3 1 -0 -1 -2 -4 -3 -5 -6 -6 -6 -6 -4 -5 -5 -6 -4 -3 -2 -2 -3 -2 -2 -1 0 1 2 3 3 4 5 6 7 8 10 13 16 18 21 25 26 26 26 27 27 27 26 25 23 23 24 24 25 24 25 26 26 25 25 25 27 24 22 20 20 20 20 21 22 24 25 25 25 25 25 26 25 21 24 24 23 23 21
3 4 3 2 -0 -1 -2 -2 -4 -5 -5 -5 -4 -4 -3 -3 -5 -4 -1 0 -2 -3 -1 0 1 0 1 1 2 3 3 4 5 6 7 8 10 13 15 16 20 22 24 25 25 26 26 24 23 22 21 22 22 23 24 24 23 24 24 24 25 25 27 24 22 20 20 20 20 20 21 24 25 25 25 25 25 25 22 23 24 23 23 23 17
3 3 4 2 1 -1 -2 -4 -5 -6 -6 -3 -3 -3 -3 -3 -3 -0 1 -1 -1 0 1 0 0 1 1 1 2 2 3 5 6 6 7 8 10 12 13 14 17 19 22 24 23 23 23 23 22 21 21 21 22 22 21 22 22 22 23 24 24 25 27 25 22 21 20 20 21 23 23 24 24 24 24 24 25 25 24 24 23 23 23 17 15
4 4 4 2 1 -1 -2 -3 -5 -6 -4 -3 -3 -3 -2 -2 -0 0 1 -1 1 1 1 0 1 1 1 2 1 2 3 4 5 6 6 8 9 10 11 13 15 17 20 23 22 22 22 21 21 21 21 21 21 20 20 20 22 22 24 24 24 26 26 25 22 21 22 22 23 23 23 23 24 23 23 23 23 22 23 23 23 22 16 15 14
1 2 4 2 1 -1 -2 -3 -6 -5 -4 -4 -2 -1 -0 0 1 1 0 1 1 1 1 0 0 0 1 1 1 1 2 3 4 5 5 6 8 9 10 12 14 16 18 20 22 21 21 21 21 20 20 20 20 19 19 19 20 21 23 24 26 26 26 24 22 21 22 21 22 22 23 24 23 24 24 24 23 23 22 20 16 14 14 14 13
3 3 4 2 0 -2 -3 -4 -3 -3 -4 -2 -1 -1 -0 0 1 0 1 1 1 1 0 -0 0 0 0 1 1 3 2 2 3 3 4 5 6 7 8 10 12 14 17 19 20 21 21 21 19 18 18 19 20 18 18 19 19 21 23 25 24 23 21 20 20 21 21 22 22 23 23 22 21 21 20 17 15 13 12 12 12 12 12 12 14
2 2 3 2 -0 -2 -3 -3 -3 -4 -3 -2 -2 -1 0 0 0 1 1 1 0 1 1 0 0 0 0 1 1 2 2 2 2 3 4 5 5 7 9 11 13 16 19 20 21 21 21 20 19 18 18 18 19 17 18 21 22 23 25 22 21 20 20 20 21 23 19 17 17 16 15 15 14 13 12 11 10 9 8 9 9 9 9 9 7
2 2 2 2 0 -1 -2 -3 -4 -4 -4 -2 -2 -1 -0 0 1 1 1 1 1 0 -0 -1 -0 -0 0 1 1 1 2 2 2 2 3 4 8 13 12 12 13 18 21 23 23 21 20 20 19 19 19 19 19 19 22 22 22 23 25 23 23 23 22 22 23 22 18 15 15 13 12 12 11 11 10 9 8 7 6 6 7 10 5 4 3
1 0 1 1 -1 -2 -3 -4 -4 -4 -3 -3 -1 -1 -1 0 1 1 1 1 1 -0 -1 -1 -1 -1 0 1 1 1 1 2 2 2 3 4 5 7 12 15 17 18 21 23 22 22 22 22 22 20 21 23 23 22 22 22 22 24 25 24 24 23 24 23 22 17 15 14 12 11 11 11 10 9 8 7 6 6 5 4 3 3 3 3 1